Tracking 20942 objects as of 11-Jul-2020
HD Live streaming from Space Station
objects crossing your sky now

COSMOS 2251 DEB

Track COSMOS 2251 DEB now!
10-day predictions


NORAD ID: 35441
Int'l Code: 1993-036AKK
Perigee: 730.2 km
Apogee: 809.4 km
Inclination: 74.1 °
Period: 100.1 minutes
Semi major axis: 7140 km
RCS: 0.0123 m2 (small)
Launch date: June 16, 1993
Source: Commonwealth of Independent States (former USSR) (CIS)
Launch site: PLESETSK MISSILE AND SPACE COMPLEX (PKMTR)

Note: This is SATELLITE DEBRIS
aabbcc
Your satellite tracking list
Your tracking list is empty




NASA's NSSDC Master Catalog

Two Line Element Set (TLE):
1 35441U 93036AKK 20192.74355654 +.00000291 +00000-0 +10098-3 0  9994
2 35441 074.1446 008.4073 0055426 088.9534 271.7970 14.38747563588042
Source of the keplerian elements: AFSPC